Lufkin, TX

4:20 AM CDT on October 18, 2017 (GMT -0500)
Angelina County

Weather History for KLFK - October, 2012

Change the Weather History Date:

Monday, October 8, 2012

  Actual Average Record
Temperature  
Mean Temperature 58 °F 70 °F  
Max Temperature 67 °F 82 °F 94 °F (1928)
Min Temperature 49 °F 58 °F 27 °F (1952)
Degree Days  
Heating Degree Days 7 1  
Month to date heating degree days 21 8  
Since 1 July heating degree days 21 12  
Cooling Degree Days 0 6  
Month to date cooling degree days 36 56  
Year to date cooling degree days 2988 2453  
Growing Degree Days 8 (Base 50)    
Moisture  
Dew Point 47 °F    
Average Humidity 69    
Maximum Humidity 89    
Minimum Humidity 48    
Precipitation  
Precipitation 0.01 in 0.14 in 1.18 in (1994)
Month to date precipitation 0.01 1.07  
Year to date precipitation 37.68 35.74  
Snow  
Snow 0.00 in - - ()
Month to date snowfall 0.0  
Since 1 July snowfall 0.0  
Since 1 September snowfall 0.0  
Snow Depth 0.00 in    
Sea Level Pressure  
Sea Level Pressure 30.20 in    
Wind  
Wind Speed 4 mph (NNE)    
Max Wind Speed 12 mph    
Max Gust Speed 16 mph    
Visibility 10 miles    
Events Rain    
T = Trace of Precipitation, MM = Missing Value Source: NWS Daily Summary

Daily Weather History Graph

Daily Weather History Graph

Search for Another Location

Airport or City:

Trip Planner

Search our weather history database for the weather conditions in past years. The results will help you decide how hot, cold, wet, or windy it might be!

Date:

Astronomy

Oct. 08, 2012 Rise Set
Actual Time 7:17 AM CDT 6:54 PM CDT
Civil Twilight 6:53 AM CDT 7:19 PM CDT
Nautical Twilight 6:25 AM CDT 7:47 PM CDT
Astronomical Twilight 5:57 AM CDT 8:15 PM CDT
Moon 12:23 AM CDT (10/8) 2:21 PM CDT (10/8)
Length of Visible Light 12h 25m
Length of Day
11h 37m
Last Quarter, 46% of the Moon is Illuminated
Oct 8
Last Quarter
Oct 15
New
Oct 21
First Quarter
Oct 29
Full
Nov 6
Last Quarter

Hourly Weather History & Observations

Time (CDT) Temp. Dew Point Humidity Pressure Visibility Wind Dir Wind Speed Gust Speed Precip Events Conditions
1:53 AM 54.0 °F 44.1 °F 69% 30.19 in 10.0 mi North 9.2 mph - N/A   Overcast
2:53 AM 53.1 °F 45.0 °F 74% 30.18 in 10.0 mi NNE 8.1 mph - N/A   Overcast
3:30 AM 51.8 °F 46.4 °F 82% 30.19 in 10.0 mi North 6.9 mph 16.1 mph N/A   Overcast
4:53 AM 52.0 °F 46.9 °F 83% 30.19 in 6.0 mi North 5.8 mph - 0.01 in Rain Light Rain
5:53 AM 51.1 °F 48.0 °F 89% 30.20 in 10.0 mi NNE 4.6 mph - 0.00 in Rain Light Rain
6:53 AM 51.1 °F 46.9 °F 86% 30.22 in 10.0 mi NNE 6.9 mph - 0.00 in   Overcast
7:46 AM 51.8 °F 46.4 °F 82% 30.23 in 10.0 mi NNE 5.8 mph - N/A   Overcast
7:53 AM 52.0 °F 46.9 °F 83% 30.23 in 10.0 mi NNE 5.8 mph - N/A   Overcast
8:02 AM 51.8 °F 48.2 °F 88% 30.23 in 10.0 mi NNE 3.5 mph - N/A   Overcast
8:53 AM 53.1 °F 48.0 °F 83% 30.25 in 10.0 mi NE 4.6 mph - N/A   Overcast
9:05 AM 53.6 °F 48.2 °F 82% 30.25 in 10.0 mi Calm Calm - N/A   Overcast
9:46 AM 55.4 °F 48.2 °F 77% 30.26 in 10.0 mi NNE 6.9 mph - N/A   Overcast
9:53 AM 55.0 °F 46.9 °F 74% 30.25 in 10.0 mi NE 5.8 mph - N/A   Overcast
10:37 AM 57.2 °F 46.4 °F 67% 30.25 in 10.0 mi ENE 6.9 mph - N/A   Overcast
10:53 AM 57.9 °F 46.0 °F 65% 30.25 in 10.0 mi NNE 5.8 mph - N/A   Overcast
11:01 AM 60.8 °F 46.4 °F 59% 30.25 in 10.0 mi NNE 8.1 mph - N/A   Overcast
11:10 AM 59.0 °F 46.4 °F 63% 30.24 in 10.0 mi North 6.9 mph - N/A   Overcast
11:39 AM 60.8 °F 46.4 °F 59% 30.24 in 10.0 mi Variable 6.9 mph - N/A   Scattered Clouds
12:02 PM 60.8 °F 44.6 °F 55% 30.24 in 10.0 mi ENE 6.9 mph - N/A   Mostly Cloudy
12:53 PM 61.0 °F 46.0 °F 58% 30.22 in 10.0 mi NNE 5.8 mph - N/A   Overcast
1:53 PM 63.0 °F 46.9 °F 56% 30.19 in 10.0 mi East 3.5 mph - N/A   Overcast
2:28 PM 62.6 °F 46.4 °F 55% 30.18 in 10.0 mi North 6.9 mph - N/A   Mostly Cloudy
2:53 PM 64.9 °F 46.9 °F 52% 30.16 in 10.0 mi Calm Calm - N/A   Mostly Cloudy
4:53 PM 66.0 °F 46.9 °F 50% 30.12 in 10.0 mi ENE 8.1 mph - N/A   Clear
5:53 PM 64.9 °F 48.0 °F 54% 30.11 in 10.0 mi Variable 4.6 mph - N/A   Clear
6:53 PM 61.0 °F 50.0 °F 67% 30.11 in 10.0 mi Calm Calm - N/A   Clear
7:53 PM 57.0 °F 50.0 °F 77% 30.12 in 10.0 mi Calm Calm - N/A   Clear
8:53 PM 53.6 °F 48.2 °F 82% 30.14 in 10.0 mi Calm Calm - N/A   Clear
9:53 PM 52.0 °F 48.0 °F 86% 30.14 in 10.0 mi East 3.5 mph - N/A   Clear
10:53 PM 52.0 °F 48.0 °F 86% 30.13 in 10.0 mi Calm Calm - N/A   Clear
11:53 PM 50.0 °F 46.0 °F 86% 30.12 in 10.0 mi Calm Calm - N/A   Clear